Location: Berg
(48.4333°N, 13.9167°E)
Time: 05:04:08
(UTC+00:00)

Cosmos 1707 - Pass Details

Date: 18 September 2020
Orbit: 515 x 530 km, 82.5° (Epoch: 27 October)

Event Time Altitude Azimuth Distance (km) Brightness Sun altitude
Rises 17:40:13 0° 359° (N) 2,655 6.4 -5.8°
Reaches altitude 10° 17:42:36 10° 12° (NNE) 1,760 5.4 -6.2°
Maximum altitude 17:45:56 27° 72° (ENE) 1,013 3.7 -6.8°
Drops below altitude 10° 17:49:15 10° 132° (SE) 1,743 4.9 -7.3°
Enters shadow 17:50:51 - 142° (SE) 2,338 5.6 -7.6°
